373P/Rinner (2019)

Japanese version
Home page
Updated on May 23, 2019

---------------------------------------------------------------------

* Profile

Designation 373P/2018 R2
Recovery Date September 14 and 9, 2018
Magnitude 20.4 mag and 21.1 mag
Recoverer K. Sarneczky and R. Szakats (Konkoly Observatory), J. F. Soulier (Maisoncelles, France)

* Pictures

* Orbital Elements

Epoch 2019 Apr. 27.0 TT = JDT 2458600.5
T 2019 Apr.  9.13828 TT                                 MPCW
q   2.3134559            (2000.0)            P               Q
n   0.13265015     Peri.  221.20903     -0.04037250     -0.98147352
a   3.8077131      Node   231.95865     +0.96771575     +0.00826548
e   0.3924290      Incl.   13.75768     +0.24878963     -0.19141946
P   7.43
From 782 observations 2011 Nov. 28-2019 Apr. 1, mean residual 0".6.

* Magnitudes Graph

        m1 = 5.0 + 5 log d + 30.0 log r

---------------------------------------------------------------------

The orbital elements are published on M.P.E.C. 2019-J142.
The magnitudes graphs are made with Comet for Windows.

---------------------------------------------------------------------

Copyright(C) Seiichi Yoshida (comet@aerith.net). All rights reserved.